Date String (YYYY-MM-DD hh:mm:ss) UTC,Instrument flags,absolute air pressure of the measurement (hPa),sample flow rate (lpm),inlet stack bypass flow (lpm),air temperature of the measurement (°C),ambient temperature measured by the external sensor (°C),aerosol sample conditioner tube jacket temperature (°C),OPC LED temperature (°C),internal box temperature (°C),relative humidity of the measurement (%),span deviation,mass concentration of particles derived from Lorenz-Mie calculation of OPC scattering (μg/m³),mass concentration of particles derived from Lorenz-Mie calculation of OPC scattering (μg/m³),mass concentration of particles derived from Lorenz-Mie calculation of OPC scattering (μg/m³)
DateTimeUTC,F1_M11,P_M11,Q1_M11,Q2_M11,T1_M11,T2_M11,T3_M11,T4_M11,T5_M11,U1_M11,ZSPAN_M11,X0_M11,X2_M11,X1_M11
2024-02-15 10:00:00,SystemResetWarning,0827.8,5.00,000.00,018.3,017.8,000.0,026.8,020.0,21.6,0000.9,0009.42,0006.60,0006.48
2024-02-15 10:01:00,SystemResetWarning,0827.8,5.00,000.00,018.3,017.8,000.0,026.8,020.0,21.6,0001.2,0009.46,0006.66,0006.55
2024-02-15 10:02:00,SystemResetWarning,0827.8,5.00,000.00,018.3,017.8,000.0,026.8,020.0,21.5,0001.1,0009.53,0006.72,0006.61
2024-02-15 10:03:00,SystemResetWarning,0827.9,5.00,000.00,018.3,017.8,000.0,026.8,020.0,21.5,0001.0,0009.57,0006.76,0006.65
2024-02-15 10:04:00,SystemResetWarning,0827.8,5.01,000.00,018.3,017.8,000.0,026.8,020.0,21.5,0001.1,0009.63,0006.80,0006.69
2024-02-15 10:05:00,SystemResetWarning,0827.8,5.00,000.00,018.3,017.8,000.0,026.8,020.0,21.6,0001.6,0009.64,0006.85,0006.74
2024-02-15 10:06:00,SystemResetWarning,0827.8,5.00,000.00,018.3,017.8,000.0,026.8,020.0,21.5,0001.7,0009.53,0006.87,0006.78
2024-02-15 10:07:00,SystemResetWarning,0827.8,5.00,000.00,018.2,017.8,000.0,026.8,020.0,21.6,0001.9,0009.55,0006.90,0006.81
2024-02-15 10:08:00,SystemResetWarning,0827.8,5.00,000.00,018.3,017.8,000.0,026.8,020.0,21.6,0002.0,0009.47,0006.94,0006.86
2024-02-15 10:09:00,SystemResetWarning,0827.8,5.01,000.00,018.3,017.8,000.0,026.8,020.0,21.6,0001.9,0009.25,0006.98,0006.90
2024-02-15 10:10:00,SystemResetWarning,0827.8,5.01,000.00,018.3,017.8,000.0,026.8,020.0,21.5,0002.0,0008.81,0007.00,0006.93
2024-02-15 10:11:00,SystemResetWarning,0828.0,5.00,000.00,018.2,017.7,000.0,026.8,020.0,21.6,0001.7,0008.83,0007.01,0006.93
2024-02-15 10:12:00,SystemResetWarning,0828.0,5.00,000.00,018.2,017.7,000.0,026.8,020.0,21.5,0001.5,0008.84,0007.01,0006.93
2024-02-15 10:13:00,SystemResetWarning,0828.1,5.00,000.00,018.2,017.7,000.0,026.8,020.0,21.4,0001.7,0009.18,0006.99,0006.93
2024-02-15 10:14:00,SystemResetWarning,0828.1,5.00,000.00,018.2,017.7,000.0,026.8,020.0,21.5,0002.0,0009.50,0007.00,0006.93
2024-02-15 10:15:00,SystemResetWarning,0828.1,5.01,000.00,018.2,017.7,000.0,026.8,020.0,21.5,0001.8,0009.51,0007.02,0006.96
2024-02-15 10:16:00,SystemResetWarning,0827.9,5.00,000.00,018.2,017.7,000.0,026.8,020.0,21.5,0001.2,0009.54,0007.04,0006.98
2024-02-15 10:17:00,SystemResetWarning,0827.8,5.00,000.00,018.3,017.7,000.0,026.8,020.0,21.5,0001.2,0009.53,0007.03,0006.96
2024-02-15 10:18:00,SystemResetWarning,0827.8,4.99,000.00,018.2,017.7,000.0,026.9,020.0,21.5,0000.7,0009.52,0007.00,0006.92
2024-02-15 10:19:00,SystemResetWarning,0828.0,4.99,000.00,018.2,017.7,000.0,026.9,020.0,21.5,0000.7,0009.50,0006.96,0006.87
2024-02-15 10:20:00,SystemResetWarning,0827.9,4.99,000.00,018.2,017.7,000.0,026.8,020.0,21.5,0000.3,0009.46,0006.91,0006.82
2024-02-15 10:21:00,SystemResetWarning,0827.8,5.00,000.00,018.2,017.7,000.0,026.9,020.0,21.5,0000.0,0009.43,0006.89,0006.81
2024-02-15 10:22:00,SystemResetWarning,0827.8,5.01,000.00,018.2,017.7,000.0,026.9,020.0,21.4,0000.7,0009.39,0006.88,0006.81
2024-02-15 10:23:00,SystemResetWarning,0827.8,5.01,000.00,018.2,017.7,000.0,026.9,020.0,21.4,0001.5,0009.35,0006.86,0006.79
2024-02-15 10:24:00,SystemResetWarning,0828.0,5.00,000.00,018.2,017.7,000.0,026.9,020.0,21.4,0001.6,0008.97,0006.83,0006.75
2024-02-15 10:25:00,SystemResetWarning,0828.1,4.99,000.00,018.2,017.7,000.0,026.9,020.0,21.4,0001.9,0008.54,0006.78,0006.71
2024-02-15 10:26:00,SystemResetWarning,0828.2,4.99,000.00,018.2,017.7,000.0,026.8,020.0,21.5,0002.5,0008.51,0006.75,0006.68
2024-02-15 10:27:00,SystemResetWarning,0828.1,5.00,000.00,018.2,017.7,000.0,026.9,020.0,21.5,0003.0,0008.44,0006.70,0006.63
2024-02-15 10:28:00,SystemResetWarning,0828.0,5.01,000.00,018.2,017.7,000.0,026.9,020.0,21.4,0002.8,0008.42,0006.70,0006.64
2024-02-15 10:29:00,SystemResetWarning,0827.8,5.01,000.00,018.2,017.7,000.0,026.9,020.0,21.4,0002.8,0008.40,0006.71,0006.66
2024-02-15 10:30:00,SystemResetWarning,0828.0,5.00,000.00,018.2,017.6,000.0,026.9,020.0,21.4,0002.6,0008.40,0006.72,0006.68
2024-02-15 10:31:00,SystemResetWarning,0828.1,5.00,000.00,018.2,017.6,000.0,026.9,020.0,21.5,0002.8,0008.40,0006.73,0006.70
2024-02-15 10:32:00,SystemResetWarning,0828.1,4.99,000.00,018.2,017.6,000.0,026.9,020.0,21.4,0003.1,0008.43,0006.76,0006.72
2024-02-15 10:33:00,SystemResetWarning,0828.1,4.99,000.00,018.2,017.6,000.0,026.9,020.0,21.4,0002.6,0008.45,0006.77,0006.73
2024-02-15 10:34:00,SystemResetWarning,0827.9,5.00,000.00,018.2,017.6,000.0,026.9,020.0,21.3,0002.1,0008.97,0006.80,0006.75
2024-02-15 10:35:00,SystemResetWarning,0828.1,5.01,000.00,018.2,017.6,000.0,026.9,020.0,21.3,0001.6,0009.07,0006.83,0006.77
2024-02-15 10:36:00,SystemResetWarning,0828.1,5.01,000.00,018.2,017.6,000.0,026.9,020.0,21.4,0001.1,0009.08,0006.84,0006.78
2024-02-15 10:37:00,SystemResetWarning,0828.2,5.00,000.00,018.2,017.6,000.0,026.9,020.0,21.4,0000.8,0009.10,0006.85,0006.78
2024-02-15 10:38:00,SystemResetWarning,0828.0,4.99,000.00,018.2,017.6,000.0,026.9,020.0,21.4,0000.5,0009.13,0006.86,0006.80
2024-02-15 10:39:00,SystemResetWarning,0827.8,4.99,000.00,018.2,017.6,000.0,026.9,020.0,21.4,0000.2,0009.19,0006.89,0006.82
2024-02-15 10:40:00,SystemResetWarning,0827.8,5.00,000.00,018.2,017.6,000.0,026.9,020.0,21.3,0000.2,0009.23,0006.91,0006.83
2024-02-15 10:41:00,SystemResetWarning,0827.9,5.02,000.00,018.2,017.6,000.0,026.9,020.0,21.3,0000.3,0009.24,0006.91,0006.83
2024-02-15 10:42:00,SystemResetWarning,0828.1,5.00,000.00,018.2,017.6,000.0,026.9,020.0,21.3,0000.4,0009.26,0006.94,0006.86
2024-02-15 10:43:00,SystemResetWarning,0828.1,4.99,000.00,018.2,017.6,000.0,026.9,020.0,21.4,-000.0,0009.32,0006.96,0006.87
2024-02-15 10:44:00,SystemResetWarning,0828.0,4.99,000.00,018.2,017.6,000.0,026.9,020.0,21.3,0000.1,0009.36,0006.98,0006.88
2024-02-15 10:45:00,SystemResetWarning,0827.9,4.99,000.00,018.2,017.6,000.0,026.9,020.0,21.3,-000.1,0008.90,0006.99,0006.89
2024-02-15 10:46:00,SystemResetWarning,0828.0,5.00,000.00,018.2,017.6,000.0,026.9,020.0,21.4,-000.1,0008.86,0007.00,0006.92
2024-02-15 10:47:00,SystemResetWarning,0827.8,5.00,000.00,018.2,017.6,000.0,026.9,020.0,21.4,-000.0,0008.92,0007.02,0006.94
2024-02-15 10:48:00,SystemResetWarning,0827.8,5.01,000.00,018.2,017.6,000.0,026.9,020.0,21.4,-000.1,0008.89,0006.99,0006.92
2024-02-15 10:49:00,SystemResetWarning,0827.8,5.00,000.00,018.2,017.6,000.0,026.9,020.0,21.4,-000.3,0008.86,0006.97,0006.88
2024-02-15 10:50:00,SystemResetWarning,0828.0,5.00,000.00,018.2,017.5,000.0,026.9,020.0,21.4,0000.3,0008.86,0006.97,0006.87
2024-02-15 10:51:00,SystemResetWarning,0828.1,5.00,000.00,018.3,017.9,000.0,027.0,020.2,21.3,0000.5,0008.87,0006.97,0006.89
2024-02-15 10:52:00,SystemResetWarning,0828.0,5.00,000.00,018.5,018.7,000.0,027.1,020.7,21.1,0000.5,0008.88,0006.98,0006.90
2024-02-15 10:53:00,SystemResetWarning,0827.9,4.99,000.00,018.6,018.8,000.0,027.0,020.7,20.9,0000.2,0008.88,0006.98,0006.89
2024-02-15 10:54:00,SystemResetWarning,0827.8,5.00,000.00,018.6,018.7,000.0,027.0,020.6,20.8,0000.2,0008.84,0006.96,0006.88
2024-02-15 10:55:00,SystemResetWarning,0827.9,5.02,000.00,018.6,018.6,000.0,026.9,020.4,20.8,-000.1,0008.82,0006.94,0006.86
2024-02-15 10:56:00,SystemResetWarning,0827.9,4.99,000.00,018.6,018.4,000.0,026.9,020.3,20.8,0000.1,0008.78,0006.92,0006.84
2024-02-15 10:57:00,SystemResetWarning,0827.8,4.99,000.00,018.6,018.3,000.0,026.9,020.2,20.7,0000.6,0008.77,0006.91,0006.83
2024-02-15 10:58:00,SystemResetWarning,0827.8,5.00,000.00,018.5,018.2,000.0,026.9,020.2,20.7,0000.7,0008.75,0006.91,0006.84
2024-02-15 10:59:00,SystemResetWarning,0827.9,5.01,000.00,018.5,018.2,000.0,026.9,020.2,20.8,0000.9,0008.81,0006.96,0006.88
